Torna al catalogo

BREEZE-M DEB

AttivoMEO
NORAD 41548·DEBRIS·🇷🇺 Russia

Lanciato Dec 13, 2015 da Baikonur Cosmodrome

Loading…

Prossimi Passaggi (prossime 24 ore)

TLE

AggiornatoSource: Space-Track

Epoca: Sep 13, 2026, 17:10 UTC

1 41548U 15075J   26256.71593624 -.00000004  00000-0  00000-0 0  9993
2 41548   8.8856  54.9023 0375869 138.9327 224.0947  1.02191171 40176

Traccia BREEZE-M DEB in tempo reale con AllMySat

Download on the App Store